XINGYUN-2 02

Last updated on Fri Jun 12 2020 00:02:03 GMT+0000 (Coordinated Universal Time)

1 45603U 20028B 20163.72170698 .00000868 00000-0 73099-4 0 9996 2 45603 97.5577 193.9929 0011776 150.7766 318.4914 15.00684315 4597
UTC large
Height (km)
Speed (km/s)
/
Latitude / Longitude
Inclination (degrees)
Orbital Period (minutes)
Azimuth
Elevation
Range (km)
Doppler Factor

Next 0 passes for location: London (51.5072 / 0.1276)

Sorry there are no passes over London.